• în România
  • Lista ţărilor
  • Pe 7 zile
  • Temperatura apei
  • Hartă satelitară
  • Meteo pe hartă
  • Widget-uri
  • user-avatar
    Intrare

    Meteo pe oră la Satif

    Astăzi, 17 Ianuarie, Marţi

    Timp Temperatura Precipitaţii Vânt Presiune Umiditate
    00:00 -1°C° 1,1 mm 3 m/s 665 mmHg 96%
    01:00 -1°C° 0,7 mm 3 m/s 665 mmHg 96%
    02:00 -2°C° 0,7 mm 2 m/s 665 mmHg 96%
    03:00 -2°C° 0,7 mm 2 m/s 664 mmHg 97%
    04:00 -2°C° 0,9 mm 2 m/s 664 mmHg 96%
    05:00 -2°C° 0,9 mm 2 m/s 664 mmHg 95%
    06:00 -2°C° 0,9 mm 2 m/s 664 mmHg 95%
    07:00 -1°C° 1 mm 3 m/s 664 mmHg 92%
    08:00 -1°C° 1 mm 3 m/s 664 mmHg 90%
    09:00 -1°C° 1 mm 3 m/s 665 mmHg 87%
    10:00 -1°C° 0,8 mm 3 m/s 665 mmHg 85%
    11:00 -1°C° 0,8 mm 3 m/s 665 mmHg 82%
    12:00 -1°C° 0,8 mm 3 m/s 665 mmHg 80%
    13:00 -1°C° 0,7 mm 3 m/s 665 mmHg 81%
    14:00 -1°C° 0,7 mm 3 m/s 665 mmHg 81%
    15:00 -1°C° 0,7 mm 3 m/s 665 mmHg 82%
    16:00 -2°C° 0,3 mm 3 m/s 665 mmHg 86%
    17:00 -3°C° 0,3 mm 2 m/s 665 mmHg 90%
    18:00 -4°C° 0,3 mm 2 m/s 665 mmHg 94%
    19:00 -4°C° 0,2 mm 2 m/s 666 mmHg 95%
    20:00 -4°C° 0,2 mm 2 m/s 666 mmHg 95%
    21:00 -4°C° 0,2 mm 2 m/s 666 mmHg 96%
    22:00 -4°C° 0,3 mm 2 m/s 666 mmHg 95%
    23:00 -4°C° 0,3 mm 2 m/s 666 mmHg 95%

    Mâine, 18 Ianuarie, Miercuri

    Timp Temperatura Precipitaţii Vânt Presiune Umiditate
    00:00 -4°C° 0,3 mm 2 m/s 666 mmHg 94%
    01:00 -4°C° 0,8 mm 2 m/s 666 mmHg 94%
    02:00 -4°C° 0,8 mm 2 m/s 666 mmHg 95%
    03:00 -4°C° 0,8 mm 2 m/s 666 mmHg 95%
    04:00 -4°C° 0,6 mm 2 m/s 666 mmHg 95%
    05:00 -4°C° 0,6 mm 2 m/s 666 mmHg 95%
    06:00 -4°C° 0,6 mm 2 m/s 667 mmHg 95%
    07:00 -3°C° 0,2 mm 2 m/s 667 mmHg 92%
    08:00 -2°C° 0,2 mm 2 m/s 668 mmHg 90%
    09:00 -1°C° 0,2 mm 2 m/s 668 mmHg 87%
    10:00 -1°C° 0,1 mm 2 m/s 668 mmHg 84%
    11:00 +1°C° 0,1 mm 2 m/s 668 mmHg 81%
    12:00 +2°C° 0,1 mm 2 m/s 669 mmHg 78%
    13:00 +2°C° 0 mm 2 m/s 668 mmHg 79%
    14:00 +2°C° 0 mm 2 m/s 668 mmHg 79%
    15:00 +2°C° 0 mm 2 m/s 668 mmHg 80%
    16:00 -1°C° 0 mm 2 m/s 668 mmHg 85%
    17:00 -1°C° 0 mm 1 m/s 668 mmHg 90%
    18:00 -2°C° 0 mm 1 m/s 668 mmHg 94%
    19:00 -3°C° 0 mm 1 m/s 668 mmHg 94%
    20:00 -3°C° 0 mm 1 m/s 668 mmHg 94%
    21:00 -3°C° 0 mm 1 m/s 668 mmHg 94%
    22:00 -3°C° 0 mm 1 m/s 668 mmHg 93%
    23:00 -3°C° 0 mm 1 m/s 668 mmHg 91%

    Poimâine, 19 Ianuarie, Joi

    Timp Temperatura Precipitaţii Vânt Presiune Umiditate
    00:00 -4°C° 0 mm 1 m/s 668 mmHg 90%
    01:00 -4°C° 0 mm 1 m/s 668 mmHg 89%
    02:00 -4°C° 0 mm 1 m/s 668 mmHg 88%
    03:00 -4°C° 0 mm 1 m/s 668 mmHg 87%
    04:00 -3°C° 0 mm 1 m/s 668 mmHg 87%
    05:00 -3°C° 0 mm 1 m/s 668 mmHg 86%
    06:00 -3°C° 0 mm 1 m/s 668 mmHg 85%
    07:00 -1°C° 0 mm 1 m/s 669 mmHg 80%
    08:00 0°C° 0 mm 1 m/s 670 mmHg 75%
    09:00 +2°C° 0 mm 1 m/s 671 mmHg 70%
    10:00 +2°C° 0 mm 2 m/s 671 mmHg 68%
    11:00 +3°C° 0 mm 2 m/s 671 mmHg 66%
    12:00 +4°C° 0 mm 2 m/s 671 mmHg 64%
    13:00 +4°C° 0 mm 2 m/s 670 mmHg 65%
    14:00 +4°C° 0 mm 2 m/s 670 mmHg 66%
    15:00 +4°C° 0 mm 2 m/s 670 mmHg 67%
    16:00 +2°C° 0 mm 2 m/s 669 mmHg 72%
    17:00 +1°C° 0 mm 1 m/s 669 mmHg 77%
    18:00 0°C° 0 mm 1 m/s 669 mmHg 82%
    19:00 -1°C° 0 mm 1 m/s 669 mmHg 82%
    20:00 -1°C° 0 mm 1 m/s 669 mmHg 83%
    21:00 -1°C° 0 mm 1 m/s 669 mmHg 83%
    22:00 -1°C° 0 mm 1 m/s 669 mmHg 82%
    23:00 -1°C° 0 mm 1 m/s 668 mmHg 81%

    20 Ianuarie, Vineri

    Timp Temperatura Precipitaţii Vânt Presiune Umiditate
    00:00 -1°C° 0 mm 1 m/s 668 mmHg 80%
    01:00 -1°C° 0 mm 1 m/s 668 mmHg 80%
    02:00 -1°C° 0 mm 1 m/s 668 mmHg 79%
    03:00 -1°C° 0 mm 1 m/s 667 mmHg 79%
    04:00 -1°C° 0 mm 1 m/s 667 mmHg 77%
    05:00 -1°C° 0 mm 1 m/s 667 mmHg 76%
    06:00 -1°C° 0 mm 1 m/s 667 mmHg 74%
    07:00 0°C° 0 mm 1 m/s 668 mmHg 74%
    08:00 +1°C° 0 mm 1 m/s 668 mmHg 73%
    09:00 +3°C° 0 mm 1 m/s 668 mmHg 73%
    10:00 +3°C° 0,2 mm 1 m/s 668 mmHg 73%
    11:00 +4°C° 0,2 mm 1 m/s 668 mmHg 73%
    12:00 +4°C° 0,2 mm 1 m/s 667 mmHg 74%
    13:00 +3°C° 0,6 mm 2 m/s 667 mmHg 79%
    14:00 +3°C° 0,6 mm 2 m/s 666 mmHg 84%
    15:00 +2°C° 0,6 mm 2 m/s 666 mmHg 89%
    16:00 +2°C° 1,1 mm 2 m/s 666 mmHg 91%
    17:00 +1°C° 1,1 mm 2 m/s 665 mmHg 93%
    18:00 +1°C° 1,1 mm 2 m/s 665 mmHg 95%
    19:00 +1°C° 0,5 mm 1 m/s 665 mmHg 96%
    20:00 +1°C° 0,5 mm 1 m/s 665 mmHg 96%
    21:00 +1°C° 0,5 mm 1 m/s 665 mmHg 97%
    22:00 +1°C° 0,2 mm 1 m/s 665 mmHg 97%
    23:00 +1°C° 0,2 mm 1 m/s 664 mmHg 97%

    21 Ianuarie, Sâmbătă

    Timp Temperatura Precipitaţii Vânt Presiune Umiditate
    00:00 0°C° 0,2 mm 1 m/s 664 mmHg 97%
    01:00 0°C° 0,9 mm 1 m/s 664 mmHg 97%
    02:00 0°C° 0,9 mm 1 m/s 663 mmHg 97%
    03:00 -2°C° 0,9 mm 2 m/s 663 mmHg 97%
    04:00 -2°C° 2 mm 2 m/s 663 mmHg 97%
    05:00 -2°C° 2 mm 2 m/s 663 mmHg 97%
    06:00 -1°C° 2 mm 2 m/s 662 mmHg 97%
    07:00 -1°C° 0,5 mm 2 m/s 663 mmHg 96%
    08:00 -1°C° 0,5 mm 2 m/s 663 mmHg 96%
    09:00 +1°C° 0,5 mm 2 m/s 663 mmHg 96%
    10:00 +1°C° 0 mm 2 m/s 663 mmHg 95%
    11:00 +2°C° 0 mm 2 m/s 663 mmHg 94%
    12:00 +3°C° 0 mm 2 m/s 663 mmHg 94%
    13:00 +3°C° 0,5 mm 2 m/s 663 mmHg 94%
    14:00 +3°C° 0,5 mm 2 m/s 663 mmHg 94%
    15:00 +3°C° 0,5 mm 2 m/s 664 mmHg 93%
    16:00 +2°C° 1 mm 2 m/s 664 mmHg 95%
    17:00 +2°C° 1 mm 2 m/s 664 mmHg 96%
    18:00 +1°C° 1 mm 2 m/s 665 mmHg 97%
    19:00 +1°C° 2 mm 2 m/s 665 mmHg 97%
    20:00 0°C° 2 mm 3 m/s 666 mmHg 97%
    21:00 0°C° 2 mm 3 m/s 667 mmHg 97%
    22:00 0°C° 1,2 mm 3 m/s 667 mmHg 97%
    23:00 0°C° 1,2 mm 3 m/s 667 mmHg 97%

    22 Ianuarie, Duminică

    Timp Temperatura Precipitaţii Vânt Presiune Umiditate
    00:00 0°C° 1,2 mm 3 m/s 668 mmHg 98%
    01:00 0°C° 0,2 mm 3 m/s 668 mmHg 98%
    02:00 0°C° 0,2 mm 3 m/s 668 mmHg 98%
    03:00 0°C° 0,2 mm 3 m/s 668 mmHg 98%
    04:00 0°C° 0,1 mm 3 m/s 669 mmHg 98%
    05:00 0°C° 0,1 mm 3 m/s 669 mmHg 97%
    06:00 0°C° 0,1 mm 3 m/s 670 mmHg 97%
    07:00 0°C° 0,1 mm 3 m/s 670 mmHg 96%
    08:00 0°C° 0,1 mm 3 m/s 671 mmHg 95%
    09:00 +1°C° 0,1 mm 3 m/s 672 mmHg 94%
    10:00 +1°C° 0 mm 3 m/s 672 mmHg 91%
    11:00 +2°C° 0 mm 3 m/s 672 mmHg 88%
    12:00 +2°C° 0 mm 3 m/s 672 mmHg 85%
    13:00 +3°C° 0 mm 2 m/s 672 mmHg 85%
    14:00 +3°C° 0 mm 2 m/s 672 mmHg 84%
    15:00 +3°C° 0 mm 2 m/s 672 mmHg 84%
    16:00 +1°C° 0 mm 2 m/s 671 mmHg 88%
    17:00 0°C° 0 mm 1 m/s 671 mmHg 91%
    18:00 -1°C° 0 mm 1 m/s 671 mmHg 94%
    19:00 -1°C° 0 mm 1 m/s 671 mmHg 94%
    20:00 -1°C° 0 mm 1 m/s 672 mmHg 93%
    21:00 -2°C° 0 mm 2 m/s 672 mmHg 93%
    22:00 -2°C° 0 mm 2 m/s 672 mmHg 92%
    23:00 -2°C° 0 mm 2 m/s 672 mmHg 91%
    Arată mai mult